When you browse on this site, cookies collect data to enhance your experience and personalize the content and advertising you see.
Visit our Privacy Policy to learn more. By continuing to use the site, you agree to this use of cookies and data.
  • In Portugal
  • List of Countries
  • For 7 days
  • Water Temperature
  • Weather Map
  • Weather Widgets
  • user-avatar
    Login

    Hourly Weather Nizhniy Katruh

    Today, 2 June, Tuesday

    Time Temperature Precipitation Wind Pressure Humidity
    00:00 +10°C° 0 mm 1 mps 600 mmHg 58%
    01:00 +10°C° 0 mm 1 mps 600 mmHg 59%
    02:00 +10°C° 0 mm 1 mps 600 mmHg 60%
    03:00 +10°C° 0 mm 1 mps 600 mmHg 61%
    04:00 +12°C° 0 mm 1 mps 600 mmHg 59%
    05:00 +14°C° 0 mm 1 mps 601 mmHg 57%
    06:00 +15°C° 0 mm 1 mps 602 mmHg 55%
    07:00 +17°C° 0 mm 2 mps 602 mmHg 50%
    08:00 +19°C° 0 mm 3 mps 603 mmHg 44%
    09:00 +20°C° 0 mm 4 mps 604 mmHg 38%
    10:00 +21°C° 0 mm 4 mps 604 mmHg 38%
    11:00 +21°C° 0 mm 5 mps 604 mmHg 38%
    12:00 +22°C° 0 mm 5 mps 604 mmHg 38%
    13:00 +22°C° 0 mm 4 mps 603 mmHg 38%
    14:00 +22°C° 0 mm 4 mps 603 mmHg 37%
    15:00 +22°C° 0 mm 4 mps 603 mmHg 37%
    16:00 +19°C° 1.4 mm 4 mps 602 mmHg 52%
    17:00 +15°C° 1.4 mm 4 mps 601 mmHg 67%
    18:00 +13°C° 1.4 mm 4 mps 600 mmHg 82%
    19:00 +12°C° 0.6 mm 3 mps 600 mmHg 82%
    20:00 +12°C° 0.6 mm 2 mps 599 mmHg 81%
    21:00 +10°C° 0.6 mm 2 mps 599 mmHg 81%
    22:00 +12°C° 0.2 mm 2 mps 598 mmHg 79%
    23:00 +12°C° 0.2 mm 2 mps 598 mmHg 77%

    Tomorrow, 3 June, Wednesday

    Time Temperature Precipitation Wind Pressure Humidity
    00:00 +12°C° 0.2 mm 2 mps 598 mmHg 75%
    01:00 +12°C° 0.1 mm 2 mps 598 mmHg 74%
    02:00 +10°C° 0.1 mm 2 mps 597 mmHg 73%
    03:00 +10°C° 0.1 mm 2 mps 597 mmHg 72%
    04:00 +13°C° 0.1 mm 2 mps 598 mmHg 71%
    05:00 +14°C° 0.1 mm 2 mps 598 mmHg 71%
    06:00 +15°C° 0.1 mm 2 mps 599 mmHg 70%
    07:00 +17°C° 0 mm 2 mps 600 mmHg 60%
    08:00 +19°C° 0 mm 3 mps 600 mmHg 50%
    09:00 +20°C° 0 mm 3 mps 601 mmHg 40%
    10:00 +21°C° 0 mm 3 mps 601 mmHg 37%
    11:00 +21°C° 0 mm 4 mps 602 mmHg 33%
    12:00 +22°C° 0 mm 4 mps 602 mmHg 29%
    13:00 +22°C° 0 mm 4 mps 602 mmHg 30%
    14:00 +22°C° 0 mm 4 mps 602 mmHg 31%
    15:00 +22°C° 0 mm 3 mps 602 mmHg 31%
    16:00 +20°C° 0.1 mm 3 mps 602 mmHg 43%
    17:00 +18°C° 0.1 mm 3 mps 601 mmHg 55%
    18:00 +16°C° 0.1 mm 2 mps 601 mmHg 66%
    19:00 +15°C° 0.1 mm 2 mps 601 mmHg 68%
    20:00 +13°C° 0.1 mm 2 mps 600 mmHg 69%
    21:00 +12°C° 0.1 mm 2 mps 600 mmHg 71%
    22:00 +12°C° 0.1 mm 2 mps 600 mmHg 72%
    23:00 +12°C° 0.1 mm 2 mps 600 mmHg 73%

    Day after tomorrow, 4 June, Thursday

    Time Temperature Precipitation Wind Pressure Humidity
    00:00 +10°C° 0.1 mm 2 mps 600 mmHg 73%
    01:00 +10°C° 0.1 mm 2 mps 600 mmHg 75%
    02:00 +9°C° 0.1 mm 2 mps 600 mmHg 77%
    03:00 +9°C° 0.1 mm 2 mps 600 mmHg 79%
    04:00 +10°C° 0 mm 2 mps 601 mmHg 77%
    05:00 +12°C° 0 mm 2 mps 602 mmHg 76%
    06:00 +14°C° 0 mm 2 mps 603 mmHg 74%
    07:00 +15°C° 0 mm 2 mps 604 mmHg 66%
    08:00 +16°C° 0 mm 2 mps 604 mmHg 57%
    09:00 +18°C° 0 mm 3 mps 605 mmHg 48%
    10:00 +19°C° 0 mm 3 mps 605 mmHg 46%
    11:00 +19°C° 0 mm 3 mps 605 mmHg 44%
    12:00 +20°C° 0 mm 3 mps 606 mmHg 41%
    13:00 +20°C° 0 mm 3 mps 606 mmHg 41%
    14:00 +20°C° 0 mm 3 mps 605 mmHg 41%
    15:00 +20°C° 0 mm 3 mps 605 mmHg 41%
    16:00 +19°C° 0 mm 3 mps 605 mmHg 49%
    17:00 +18°C° 0 mm 3 mps 605 mmHg 57%
    18:00 +17°C° 0 mm 3 mps 604 mmHg 65%
    19:00 +14°C° 0 mm 3 mps 604 mmHg 73%
    20:00 +13°C° 0 mm 2 mps 603 mmHg 81%
    21:00 +10°C° 0 mm 2 mps 602 mmHg 89%
    22:00 +10°C° 0 mm 2 mps 602 mmHg 86%
    23:00 +10°C° 0 mm 2 mps 602 mmHg 83%

    5 June, Friday

    Time Temperature Precipitation Wind Pressure Humidity
    00:00 +10°C° 0 mm 2 mps 602 mmHg 80%
    01:00 +10°C° 0 mm 2 mps 602 mmHg 77%
    02:00 +9°C° 0 mm 2 mps 602 mmHg 75%
    03:00 +9°C° 0 mm 2 mps 602 mmHg 73%
    04:00 +12°C° 0 mm 1 mps 603 mmHg 70%
    05:00 +14°C° 0 mm 1 mps 604 mmHg 67%
    06:00 +15°C° 0 mm 1 mps 606 mmHg 65%
    07:00 +16°C° 0 mm 1 mps 606 mmHg 60%
    08:00 +17°C° 0 mm 2 mps 607 mmHg 55%
    09:00 +19°C° 0 mm 2 mps 607 mmHg 50%
    10:00 +19°C° 0.3 mm 3 mps 608 mmHg 50%
    11:00 +19°C° 0.3 mm 3 mps 608 mmHg 49%
    12:00 +19°C° 0.3 mm 3 mps 608 mmHg 49%
    13:00 +19°C° 0.2 mm 4 mps 608 mmHg 48%
    14:00 +19°C° 0.2 mm 4 mps 608 mmHg 48%
    15:00 +19°C° 0.2 mm 4 mps 607 mmHg 47%
    16:00 +17°C° 0.3 mm 3 mps 607 mmHg 54%
    17:00 +16°C° 0.3 mm 2 mps 607 mmHg 61%
    18:00 +15°C° 0.3 mm 2 mps 606 mmHg 67%
    19:00 +13°C° 0.3 mm 2 mps 606 mmHg 74%
    20:00 +12°C° 0.3 mm 1 mps 606 mmHg 80%
    21:00 +10°C° 0.3 mm 1 mps 605 mmHg 86%
    22:00 +10°C° 0.1 mm 1 mps 605 mmHg 86%
    23:00 +10°C° 0.1 mm 1 mps 605 mmHg 85%

    6 June, Saturday

    Time Temperature Precipitation Wind Pressure Humidity
    00:00 +9°C° 0.1 mm 1 mps 605 mmHg 85%
    01:00 +9°C° 0 mm 1 mps 605 mmHg 83%
    02:00 +9°C° 0 mm 1 mps 605 mmHg 82%
    03:00 +8°C° 0 mm 1 mps 605 mmHg 80%
    04:00 +10°C° 0 mm 1 mps 606 mmHg 76%
    05:00 +11°C° 0 mm 1 mps 606 mmHg 72%
    06:00 +12°C° 0 mm 0 mps 607 mmHg 68%
    07:00 +14°C° 0 mm 1 mps 608 mmHg 66%
    08:00 +15°C° 0 mm 2 mps 608 mmHg 64%
    09:00 +16°C° 0 mm 2 mps 609 mmHg 62%
    10:00 +17°C° 0.3 mm 2 mps 609 mmHg 62%
    11:00 +17°C° 0.3 mm 2 mps 609 mmHg 63%
    12:00 +17°C° 0.3 mm 3 mps 609 mmHg 63%
    13:00 +17°C° 0.5 mm 3 mps 608 mmHg 63%
    14:00 +17°C° 0.5 mm 2 mps 608 mmHg 64%
    15:00 +17°C° 0.5 mm 2 mps 608 mmHg 64%
    16:00 +16°C° 0.5 mm 2 mps 608 mmHg 68%
    17:00 +16°C° 0.5 mm 2 mps 607 mmHg 72%
    18:00 +15°C° 0.5 mm 1 mps 607 mmHg 76%
    19:00 +14°C° 0.7 mm 1 mps 607 mmHg 80%
    20:00 +12°C° 0.7 mm 1 mps 606 mmHg 84%
    21:00 +11°C° 0.7 mm 1 mps 606 mmHg 88%
    22:00 +11°C° 0.1 mm 1 mps 606 mmHg 85%
    23:00 +11°C° 0.1 mm 1 mps 606 mmHg 83%

    7 June, Sunday

    Time Temperature Precipitation Wind Pressure Humidity
    00:00 +11°C° 0.1 mm 1 mps 606 mmHg 80%
    01:00 +10°C° 0 mm 1 mps 605 mmHg 80%
    02:00 +9°C° 0 mm 1 mps 605 mmHg 80%
    03:00 +9°C° 0 mm 1 mps 604 mmHg 79%
    04:00 +9°C° 0 mm 0 mps 605 mmHg 76%
    05:00 +11°C° 0 mm 0 mps 606 mmHg 73%
    06:00 +12°C° 0 mm 0 mps 607 mmHg 70%
    07:00 +14°C° 0 mm 1 mps 607 mmHg 69%
    08:00 +15°C° 0 mm 2 mps 608 mmHg 67%
    09:00 +17°C° 0 mm 2 mps 608 mmHg 66%
    10:00 +17°C° 0.4 mm 2 mps 608 mmHg 67%
    11:00 +17°C° 0.4 mm 2 mps 608 mmHg 69%
    12:00 +18°C° 0.4 mm 2 mps 608 mmHg 70%
    13:00 +17°C° 0.7 mm 2 mps 608 mmHg 71%
    14:00 +17°C° 0.7 mm 2 mps 607 mmHg 73%
    15:00 +17°C° 0.7 mm 2 mps 607 mmHg 74%
    16:00 +17°C° 0.4 mm 2 mps 607 mmHg 76%
    17:00 +16°C° 0.4 mm 1 mps 607 mmHg 77%
    18:00 +16°C° 0.4 mm 1 mps 607 mmHg 78%
    19:00 +14°C° 0.1 mm 1 mps 606 mmHg 82%
    20:00 +13°C° 0.1 mm 1 mps 605 mmHg 85%
    21:00 +11°C° 0.1 mm 1 mps 605 mmHg 89%
    22:00 +11°C° 0 mm 1 mps 605 mmHg 89%
    23:00 +10°C° 0 mm 1 mps 604 mmHg 88%
    Show more